Location: La Porta
(42.4212°N, 9.3517°E)
Time: 17:30:12
(UTC+00:00)

Daily predictions for brighter satellites

Satellite Brightness Start Highest point End
(mag) Time Altitude Azimuth Time Altitude Azimuth Time Altitude Azimuth
Cosmos 2219 3.8 16:37:28 10° N 16:42:45 36° ENE 16:48:00 10° ESE
BREEZE-M R/B 4.1 16:44:14 10° WNW 16:47:21 32° N 16:52:51 10° ENE
Cosmos 44 3.2 16:45:09 10° SW 16:49:37 85° WNW 16:54:22 10° NNE
COSMO-SKYMED 1 3.5 16:47:13 10° NE 16:50:59 28° E 16:54:43 10° SSE
H-2A R/B 2.9 16:47:01 10° N 16:51:03 51° WNW 16:55:01 10° SSW
H-2A R/B 3.7 16:51:44 10° E 16:54:44 15° ENE 16:57:44 10° NNE
Cosmos 1825 Rocket 3.6 16:54:30 10° N 16:58:58 88° W 17:03:23 10° S
Cosmos 1656 4.0 16:54:32 10° S 16:59:47 46° ESE 17:05:09 10° NE
CZ-4B R/B 3.7 16:55:47 10° S 17:01:21 70° WSW 17:06:53 10° NNW
Cosmos 1939 Rocket 3.4 16:58:26 10° SE 17:02:02 34° ENE 17:05:36 10° N
YAOGAN 1 3.9 17:00:00 10° ESE 17:03:03 19° ENE 17:06:07 10° NNE
USA 307 4.3 17:00:44 10° NW 17:04:18 24° NNE 17:07:24 12° ENE
Okean O Rocket 2.1 17:01:00 10° S 17:05:20 65° WSW 17:09:41 10° NNW
Meteor 2-21 Rocket 4.4 16:59:09 10° N 17:05:22 82° E 17:11:28 10° S
SeaSat 1 4.4 17:04:01 10° ENE 17:05:30 11° NE 17:06:59 10° NNE
USA 308 4.2 17:05:39 10° NW 17:09:15 25° NNE 17:12:08 13° ENE
Cosmos 1408 4.0 17:08:12 10° NNE 17:10:48 18° ENE 17:13:22 10° ESE
Timation 2 Rocket 4.2 17:04:47 10° NNW 17:11:28 85° ENE 17:18:19 10° SSE
Cosmos 1726 Rocket 3.6 17:07:43 10° S 17:12:03 83° W 17:16:28 10° N
Helios 1A Rocket 3.6 17:10:36 10° SE 17:14:18 33° ENE 17:17:59 10° N
Cosmos 2228 3.8 17:11:04 10° SSW 17:15:13 55° W 17:19:26 10° N
Cosmos 2227 Rocket 2.4 17:09:53 10° NNW 17:15:21 48° ENE 17:20:49 10° SE
Aureole 3 Rocket 3.1 17:12:48 10° S 17:16:37 63° E 17:21:54 10° NNE
Cosmos 1892 3.4 17:13:16 10° N 17:16:49 33° ENE 17:20:20 10° SE
Cosmos 1400 Rocket 2.8 17:12:54 10° S 17:17:00 71° E 17:21:04 10° NNE
ATLAS 2AS CENTAUR R/B 4.3 17:12:24 10° NNW 17:17:51 20° NNE 17:22:02 13° ENE
Cosmos 2263 Rocket 4.1 17:17:10 10° NNE 17:18:23 11° NE 17:19:27 10° NE
Cosmos 292 Rocket 4.5 17:14:53 10° SSW 17:19:36 57° WNW 17:24:22 10° NNE
IRS-1C Rocket 4.1 17:15:33 10° SSE 17:20:43 62° ENE 17:25:56 10° N
BREEZE-M DEB (TANK) 4.0 17:20:32 10° S 17:21:37 12° SE 17:21:57 12° SE
Cosmos 1553 Rocket 4.1 17:17:20 10° S 17:23:33 59° E 17:29:41 10° NNE
Cosmos 968 Rocket 3.7 17:19:55 10° N 17:24:58 47° ENE 17:29:56 10° SE
Cosmos 1300 3.6 17:21:41 10° SSW 17:25:23 51° W 17:29:08 10° N
Atlas Centaur 2 4.1 17:20:11 10° SW 17:27:18 33° S 17:33:48 13° ESE
CZ-4 R/B 1.8 17:24:31 10° SE 17:28:06 36° ENE 17:31:39 10° N
Milstar 3 4.2 17:22:40 10° SW 17:28:28 26° S 17:33:55 10° ESE
Cosmos 1697 Rocket 3.0 17:23:26 10° S 17:28:39 42° ESE 17:33:55 10° NE
Lacrosse 5 3.9 17:26:08 10° NW 17:29:06 15° N 17:32:03 10° NE
Meteor 2-1 Rocket 4.5 17:27:54 10° SSE 17:33:04 43° E 17:38:15 10° NNE
Cosmos 2058 3.3 17:30:03 10° N 17:33:53 38° ENE 17:37:43 10° SSE
Cosmos 1825 3.5 17:32:08 10° NNE 17:34:21 21° NE 17:34:21 21° NE
PSLV R/B 3.8 17:31:08 10° NNE 17:35:18 70° ESE 17:39:25 10° S
SAR-Lupe-4 4.0 17:31:59 10° N 17:35:33 64° WNW 17:39:05 10° SSW
Meteor 2-15 4.5 17:29:50 10° S 17:35:49 58° E 17:41:49 10° NNE
CZ-2D R/B 3.1 17:32:22 10° SSE 17:36:07 62° ENE 17:39:54 10° N
Cosmos 44 Rocket 4.1 17:32:37 10° S 17:36:43 30° ESE 17:38:23 24° ENE
SKYMED 2 3.6 17:34:50 10° NNE 17:39:11 86° WNW 17:43:32 10° SSW
ERS-2 4.1 17:36:10 10° N 17:39:23 30° WNW 17:42:35 10° SW
Cosmos 220 Rocket 4.0 17:36:24 10° S 17:40:39 58° ESE 17:45:00 10° NNE
Okean-O 2.6 17:36:19 10° SSE 17:40:39 58° ENE 17:45:02 10° N
USA 281 4.4 17:35:29 10° S 17:41:43 46° WSW 17:48:00 10° NW
SL-4 R/B 3.3 17:38:56 10° NW 17:41:49 22° NNE 17:42:47 20° NE
Cosmos 1346 Rocket 2.9 17:39:44 10° N 17:43:38 51° ENE 17:47:31 10° SSE
SL-08 R/B 4.4 17:40:50 10° N 17:47:01 85° E 17:53:08 10° S
Cosmos 1340 3.1 17:43:23 10° NNW 17:47:08 64° W 17:50:52 10° S
Cosmos 1315 Rocket 2.8 17:45:38 10° S 17:49:28 54° E 17:53:23 10° NNE
Cosmos 1486 Rocket 3.9 17:44:43 10° NNW 17:50:05 82° ENE 17:55:24 10° SSE
GPS 2-04 Rocket1 4.4 17:47:23 10° SSW 17:50:29 21° SSE 17:51:22 19° SE
Cosmos 1980 Rocket 2.7 17:46:50 10° SSE 17:51:50 34° ESE 17:53:25 29° ENE
Cosmos 1745 Rocket 3.9 17:45:37 10° N 17:51:55 67° E 17:58:13 10° SSE
Cosmos 1689 Rocket 3.2 17:51:20 10° N 17:54:06 42° WNW 17:56:50 10° SSW
USA 305 3.4 17:50:48 10° NW 17:54:54 42° NNE 17:55:45 37° ENE
Cosmos 2297 Rocket 2.5 17:49:26 10° NNW 17:55:06 69° WSW 18:00:42 10° SSE
CZ-4B R/B 4.3 17:54:33 10° NNW 17:56:42 17° WNW 17:58:49 10° WSW
In-Cosmos 22 Rocket 4.4 17:51:39 10° NNW 17:57:00 69° W 18:02:26 10° S
CSL-04 Debris 4.3 17:52:59 10° SE 17:58:14 53° ENE 18:03:33 10° N
Cosmos 1503 Rocket 4.0 17:54:57 10° NNW 18:00:06 57° ENE 18:03:11 24° SE
USA 306 3.3 17:57:15 10° NW 18:01:23 45° NNE 18:01:57 43° NE
Cosmos 1386 Rocket 4.4 17:56:36 10° N 18:03:01 77° E 18:09:20 10° SSE
OAO 2 Rocket 4.3 17:59:52 10° WSW 18:04:23 35° S 18:05:52 28° SE
DMSP B5D1-3 4.4 18:01:09 10° NNE 18:06:16 64° ESE 18:11:22 10° S
CZ-2C R/B 3.2 18:01:02 10° SSE 18:06:50 82° ENE 18:12:30 10° N
Cosmos 2360 4.1 18:05:46 10° SSW 18:11:27 73° ESE 18:15:33 20° NNE
Cosmos 1354 Rocket 3.9 18:07:04 10° NNW 18:12:18 64° ENE 18:14:14 38° SE
Cosmos 1455 2.3 18:09:29 10° SSW 18:13:14 74° W 18:17:04 10° N
CZ-4C R/B 4.1 18:10:44 10° NNW 18:15:59 22° NNE 18:17:00 21° NE
Cosmos 1992 Rocket 4.2 18:11:34 10° SSW 18:16:46 71° WNW 18:21:59 10° NNE
Meteor 2-10 Rocket 3.9 18:13:39 10° SSW 18:18:55 64° WNW 18:24:02 10° N
Cosmos 1709 Rocket 3.9 18:15:12 10° N 18:21:34 65° E 18:27:44 11° SSE
Cosmos 1076 Rocket 3.4 18:18:47 10° N 18:23:03 81° W 18:25:01 31° S
Cosmos 2278 3.6 18:17:36 10° S 18:23:13 66° ESE 18:24:51 45° NE
Geosat 4.0 18:29:49 31° NNE 18:32:17 79° WNW 18:37:18 10° SSW
H-2A R/B 2.1 18:27:59 10° SSE 18:33:24 83° WSW 18:38:54 10° NNW
Cosmos 883 Rocket 4.3 18:27:50 10° S 18:34:00 90° ESE 18:40:11 10° N
Cosmos 2082 3.8 18:29:21 10° NNW 18:35:05 73° WSW 18:38:04 29° S
SJ-11-01 4.4 18:34:08 35° S 18:36:03 73° WSW 18:40:44 10° NNW
ARGOS 3.0 18:36:01 62° SE 18:36:57 80° ENE 18:42:24 10° N
YAOGAN 1 3.8 18:34:46 10° S 18:38:51 41° W 18:42:57 10° NNW
Cosmos 2315 Rocket 3.8 18:35:13 10° S 18:41:25 84° E 18:47:38 10° N
GEOS 3 Rocket 3.5 18:41:31 76° NE 18:41:33 76° NE 18:46:56 10° NNW
SeaSat 1 3.1 18:43:27 44° N 18:43:27 44° N 18:46:59 10° NNW
USA 307 3.8 18:40:31 10° NW 18:43:36 46° NW 18:43:36 46° NW
Cosmos 2369 4.3 18:41:47 10° SW 18:47:22 54° WNW 18:51:18 20° N
NOSS 3-4 (A) 3.9 18:41:30 10° NNW 18:48:23 55° NE 18:48:36 55° NE
NOSS 3-4 (C) 3.9 18:41:37 10° NNW 18:48:29 55° NE 18:48:40 55° NE
USA 308 4.0 18:45:26 10° NW 18:48:20 42° NW 18:48:20 42° NW
DEBRIS 4.4 18:31:52 10° WSW 18:50:22 66° NNW 18:51:51 50° NNE
USA 215 4.0 18:54:35 37° NNE 18:54:41 37° NNE 19:00:34 10° NW
CSL-04 Rocket 4.4 18:51:21 10° S 18:56:44 52° W 19:02:08 10° NNW
Cosmos 2227 Rocket 4.2 18:54:34 10° NW 18:59:04 25° WSW 19:03:35 10° SSW
CZ-4 R/B 4.2 19:00:45 10° SW 19:03:15 16° W 19:05:44 10° NW
Cosmos 2263 Rocket 3.4 18:58:03 10° NNW 19:01:09 31° N 19:01:09 31° N
ATLAS 2AS CENTAUR R/B 3.1 19:03:09 10° NNW 19:09:28 54° NNE 19:09:28 54° NNE
BREEZE-M R/B 4.2 19:05:44 10° WNW 19:10:34 74° N 19:10:34 74° N
Cosmos 1697 Rocket 4.3 19:07:50 10° WSW 19:12:43 30° NW 19:16:32 15° N
Lacrosse 5 4.0 19:09:33 10° NNW 19:11:26 18° NNW 19:11:26 18° NNW
Atlas Centaur 2 3.9 19:08:49 10° WSW 19:16:18 35° S 19:16:24 35° S
Cosmos 1980 Rocket 3.5 19:30:37 10° WSW 19:35:16 35° WNW 19:35:16 35° WNW
CZ-4C R/B 4.1 19:58:33 10° NNW 20:02:10 33° NNW 20:02:10 33° NNW
